Location: Roc des P�zouls
(43.9667°N, 3.5500°E)
Time: 01:00:47
(UTC+00:00)

Cosmos 1833 Rocket - Pass Details

Date: 14 November 2019
Orbit: 832 x 840 km, 71.0° (Epoch: 05 December)

Event Time Altitude Azimuth Distance (km) Brightness Sun altitude
Exits shadow 03:45:59 60° 57° (ENE) 952 3.0 -31.1°
Drops below altitude 10° 03:50:42 10° 29° (NNE) 2,452 5.4 -30.2°
Sets 03:53:09 0° 28° (NNE) 3,391 6.2 -29.8°
